Time,TemperatureF,DewpointF,PressureIn,WindDirection,WindDirectionDegrees,WindSpeedMPH,WindSpeedGustMPH,Humidity,HourlyPrecipIn,Conditions,Clouds,dailyrainin,SoftwareType,DateUTC
2013-04-30 00:01:00,61.0,21.0,-100.00,South,174,40.0,50.0,21,0.00,,,-99.99,,2013-04-30 00:01:00,
2013-04-30 00:11:00,60.0,22.0,-100.00,South,174,43.0,52.0,22,0.00,,,-99.99,,2013-04-30 00:11:00,
2013-04-30 00:21:00,59.0,20.0,-100.00,South,179,40.0,49.0,21,0.00,,,-99.99,,2013-04-30 00:21:00,
2013-04-30 00:32:00,59.0,20.0,-100.00,South,171,39.0,49.0,22,0.00,,,-99.99,,2013-04-30 00:32:00,
2013-04-30 00:41:00,59.0,20.0,-100.00,South,171,38.0,54.0,22,0.00,,,-99.99,,2013-04-30 00:41:00,
2013-04-30 00:51:00,58.0,20.0,-100.00,South,171,40.0,48.0,22,0.00,,,-99.99,,2013-04-30 00:51:00,
2013-04-30 01:01:00,58.0,20.0,-100.00,South,172,35.0,46.0,23,0.00,,,-99.99,,2013-04-30 01:01:00,
2013-04-30 01:11:00,58.0,21.0,-100.00,South,172,37.0,46.0,24,0.00,,,-99.99,,2013-04-30 01:11:00,
2013-04-30 01:21:00,57.0,20.0,-100.00,South,184,31.0,42.0,23,-99.99,,,-99.99,,2013-04-30 01:21:00,
2013-04-30 01:32:00,56.0,20.0,-100.00,South,186,32.0,45.0,24,0.00,,,-99.99,,2013-04-30 01:32:00,
2013-04-30 01:41:00,56.0,20.0,-100.00,South,188,30.0,40.0,24,0.00,,,-99.99,,2013-04-30 01:41:00,
2013-04-30 01:51:00,56.0,19.0,-100.00,South,189,32.0,44.0,23,0.00,,,-99.99,,2013-04-30 01:51:00,
2013-04-30 02:01:00,55.0,18.0,-100.00,South,185,29.0,37.0,23,0.00,,,-99.99,,2013-04-30 02:01:00,
2013-04-30 02:11:00,56.0,18.0,-100.00,South,188,32.0,42.0,23,0.00,,,-99.99,,2013-04-30 02:11:00,
2013-04-30 02:21:00,54.0,19.0,-100.00,South,185,26.0,39.0,25,0.00,,,-99.99,,2013-04-30 02:21:00,
2013-04-30 02:31:00,54.0,20.0,-100.00,South,184,23.0,34.0,25,0.00,,,-99.99,,2013-04-30 02:31:00,
2013-04-30 02:41:00,54.0,20.0,-100.00,South,182,23.0,30.0,26,0.00,,,-99.99,,2013-04-30 02:41:00,
2013-04-30 02:51:00,53.0,21.0,-100.00,South,176,22.0,29.0,28,0.00,,,-99.99,,2013-04-30 02:51:00,
2013-04-30 03:01:00,54.0,21.0,-100.00,South,175,23.0,32.0,28,0.00,,,-99.99,,2013-04-30 03:01:00,
2013-04-30 03:11:00,53.0,22.0,-100.00,South,169,21.0,27.0,29,0.00,,,-99.99,,2013-04-30 03:11:00,
2013-04-30 03:21:00,54.0,20.0,-100.00,South,179,20.0,29.0,27,0.00,,,-99.99,,2013-04-30 03:21:00,
2013-04-30 03:33:00,54.0,21.0,-100.00,South,188,21.0,27.0,27,0.00,,,-99.99,,2013-04-30 03:33:00,
2013-04-30 03:42:00,54.0,21.0,-100.00,South,185,23.0,32.0,27,0.00,,,-99.99,,2013-04-30 03:42:00,
2013-04-30 03:52:00,54.0,21.0,-100.00,South,186,24.0,37.0,28,0.00,,,-99.99,,2013-04-30 03:52:00,
2013-04-30 04:02:00,53.0,21.0,-100.00,South,191,27.0,37.0,27,0.00,,,-99.99,,2013-04-30 04:02:00,
2013-04-30 04:12:00,53.0,21.0,-100.00,South,185,26.0,37.0,29,0.00,,,-99.99,,2013-04-30 04:12:00,
2013-04-30 04:22:00,52.0,22.0,-100.00,South,185,23.0,40.0,31,0.00,,,-99.99,,2013-04-30 04:22:00,
2013-04-30 04:32:00,51.0,22.0,-100.00,South,178,21.0,29.0,31,0.00,,,-99.99,,2013-04-30 04:32:00,
2013-04-30 04:42:00,51.0,23.0,-100.00,South,174,21.0,31.0,32,0.00,,,-99.99,,2013-04-30 04:42:00,
2013-04-30 04:52:00,51.0,22.0,-100.00,South,169,19.0,27.0,32,0.00,,,-99.99,,2013-04-30 04:52:00,
2013-04-30 05:02:00,50.0,23.0,-100.00,SSE,167,19.0,28.0,34,0.00,,,-99.99,,2013-04-30 05:02:00,
2013-04-30 05:12:00,50.0,22.0,-100.00,SSE,160,20.0,27.0,34,0.00,,,-99.99,,2013-04-30 05:12:00,
2013-04-30 05:22:00,50.0,22.0,-100.00,SSE,162,22.0,27.0,34,0.00,,,-99.99,,2013-04-30 05:22:00,
2013-04-30 05:31:00,50.0,23.0,-100.00,SSE,165,21.0,27.0,35,0.00,,,-99.99,,2013-04-30 05:31:00,
2013-04-30 05:42:00,50.0,23.0,-100.00,South,172,19.0,24.0,34,0.00,,,-99.99,,2013-04-30 05:42:00,
2013-04-30 05:51:00,50.0,23.0,-100.00,South,175,21.0,28.0,34,0.00,,,-99.99,,2013-04-30 05:51:00,
2013-04-30 06:01:00,50.0,24.0,-100.00,South,178,21.0,27.0,35,0.00,,,-99.99,,2013-04-30 06:01:00,
2013-04-30 06:11:00,50.0,23.0,-100.00,South,175,21.0,29.0,35,0.00,,,-99.99,,2013-04-30 06:11:00,
2013-04-30 06:21:00,50.0,23.0,-100.00,South,176,21.0,27.0,35,0.00,,,-99.99,,2013-04-30 06:21:00,
2013-04-30 06:31:00,50.0,23.0,-100.00,South,175,22.0,28.0,34,0.00,,,-99.99,,2013-04-30 06:31:00,
2013-04-30 06:41:00,50.0,24.0,-100.00,South,184,19.0,25.0,35,0.00,,,-99.99,,2013-04-30 06:41:00,
2013-04-30 06:52:00,50.0,22.0,-100.00,South,178,21.0,29.0,34,0.00,,,-99.99,,2013-04-30 06:52:00,
2013-04-30 07:01:00,49.0,24.0,-100.00,South,179,22.0,31.0,36,0.00,,,-99.99,,2013-04-30 07:01:00,
2013-04-30 07:11:00,49.0,23.0,-100.00,South,181,21.0,30.0,34,0.00,,,-99.99,,2013-04-30 07:11:00,
2013-04-30 07:21:00,49.0,24.0,-100.00,South,181,19.0,26.0,37,0.00,,,-99.99,,2013-04-30 07:21:00,
2013-04-30 07:31:00,49.0,24.0,-100.00,South,189,17.0,22.0,37,0.00,,,-99.99,,2013-04-30 07:31:00,
2013-04-30 07:41:00,49.0,24.0,-100.00,South,185,17.0,21.0,38,0.00,,,-99.99,,2013-04-30 07:41:00,
2013-04-30 07:52:00,49.0,25.0,-100.00,South,188,21.0,36.0,38,0.00,,,-99.99,,2013-04-30 07:52:00,
2013-04-30 08:02:00,49.0,26.0,-100.00,SSW,193,32.0,48.0,40,0.00,,,-99.99,,2013-04-30 08:02:00,
2013-04-30 08:11:00,49.0,27.0,-100.00,South,189,35.0,48.0,43,0.00,,,-99.99,,2013-04-30 08:11:00,
2013-04-30 08:21:00,48.0,27.0,-100.00,SSW,198,37.0,52.0,45,0.00,,,-99.99,,2013-04-30 08:21:00,
2013-04-30 08:32:00,46.0,29.0,-100.00,SSW,198,35.0,43.0,51,0.00,,,-99.99,,2013-04-30 08:32:00,
2013-04-30 08:52:00,45.0,30.0,-100.00,SSW,193,32.0,42.0,56,0.00,,,-99.99,,2013-04-30 08:52:00,
2013-04-30 09:01:00,44.0,31.0,-100.00,South,188,30.0,37.0,62,0.00,,,-99.99,,2013-04-30 09:01:00,
2013-04-30 09:11:00,43.0,31.0,-100.00,South,189,30.0,38.0,62,0.00,,,-99.99,,2013-04-30 09:11:00,
2013-04-30 09:22:00,43.0,31.0,-100.00,SSW,192,28.0,35.0,64,0.00,,,-99.99,,2013-04-30 09:22:00,
2013-04-30 09:33:00,42.0,33.0,-100.00,South,188,29.0,34.0,68,0.00,,,-99.99,,2013-04-30 09:33:00,
2013-04-30 09:43:00,42.0,33.0,-100.00,South,181,28.0,35.0,70,0.01,,,-99.99,,2013-04-30 09:43:00,
2013-04-30 10:03:00,41.0,33.0,-100.00,South,184,20.0,27.0,75,0.03,,,-99.99,,2013-04-30 10:03:00,
2013-04-30 10:11:00,41.0,33.0,-100.00,South,182,19.0,24.0,74,0.01,,,-99.99,,2013-04-30 10:11:00,
2013-04-30 10:22:00,41.0,32.0,-100.00,South,182,18.0,23.0,71,0.00,,,-99.99,,2013-04-30 10:22:00,
2013-04-30 10:32:00,41.0,32.0,-100.00,South,191,20.0,27.0,68,0.00,,,-99.99,,2013-04-30 10:32:00,
2013-04-30 10:41:00,41.0,31.0,-100.00,SSW,192,18.0,22.0,68,0.00,,,-99.99,,2013-04-30 10:41:00,
2013-04-30 10:52:00,41.0,31.0,-100.00,SSW,196,14.0,21.0,67,0.00,,,-99.99,,2013-04-30 10:52:00,
2013-04-30 11:02:00,42.0,30.0,-100.00,SSW,202,14.0,23.0,64,0.00,,,-99.99,,2013-04-30 11:02:00,
2013-04-30 11:11:00,42.0,31.0,-100.00,SSW,203,16.0,23.0,63,0.00,,,-99.99,,2013-04-30 11:11:00,
2013-04-30 11:21:00,41.0,29.0,-100.00,SW,222,11.0,16.0,61,0.00,,,-99.99,,2013-04-30 11:21:00,
2013-04-30 11:31:00,41.0,28.0,-100.00,SW,222,12.0,18.0,61,0.00,,,-99.99,,2013-04-30 11:31:00,
2013-04-30 11:51:00,41.0,29.0,-100.00,SSW,205,9.0,13.0,62,0.00,,,-99.99,,2013-04-30 11:51:00,
2013-04-30 12:01:00,41.0,30.0,-100.00,South,184,7.0,9.0,64,0.00,,,-99.99,,2013-04-30 12:01:00,
2013-04-30 12:11:00,41.0,30.0,-100.00,South,181,7.0,11.0,64,0.00,,,-99.99,,2013-04-30 12:11:00,
2013-04-30 12:21:00,41.0,30.0,-100.00,SSW,208,6.0,9.0,63,0.00,,,-99.99,,2013-04-30 12:21:00,
2013-04-30 12:31:00,41.0,28.0,-100.00,SSW,209,4.0,6.0,59,0.00,,,-99.99,,2013-04-30 12:31:00,
2013-04-30 12:41:00,41.0,28.0,-100.00,South,191,4.0,7.0,60,0.00,,,-99.99,,2013-04-30 12:41:00,
2013-04-30 12:51:00,41.0,30.0,-100.00,SSE,158,1.0,3.0,64,0.00,,,-99.99,,2013-04-30 12:51:00,
2013-04-30 13:01:00,41.0,29.0,-100.00,SE,143,3.0,7.0,61,0.00,,,-99.99,,2013-04-30 13:01:00,
2013-04-30 13:11:00,41.0,29.0,-100.00,SSE,148,6.0,8.0,61,0.00,,,-99.99,,2013-04-30 13:11:00,
2013-04-30 13:21:00,41.0,29.0,-100.00,South,172,5.0,7.0,62,0.00,,,-99.99,,2013-04-30 13:21:00,
2013-04-30 13:31:00,41.0,29.0,-100.00,South,176,4.0,7.0,61,0.00,,,-99.99,,2013-04-30 13:31:00,
2013-04-30 13:41:00,42.0,29.0,-100.00,SSW,193,6.0,9.0,62,0.00,,,-99.99,,2013-04-30 13:41:00,
2013-04-30 13:51:00,42.0,28.0,-100.00,South,171,14.0,20.0,58,0.00,,,-99.99,,2013-04-30 13:51:00,
2013-04-30 14:02:00,41.0,28.0,-100.00,South,171,17.0,24.0,59,0.00,,,-99.99,,2013-04-30 14:02:00,
2013-04-30 14:11:00,41.0,28.0,-100.00,SSE,161,16.0,22.0,61,0.00,,,-99.99,,2013-04-30 14:11:00,
2013-04-30 14:21:00,41.0,28.0,-100.00,SSE,150,15.0,21.0,60,0.00,,,-99.99,,2013-04-30 14:21:00,
2013-04-30 14:31:00,41.0,28.0,-100.00,SSE,150,16.0,21.0,60,0.00,,,-99.99,,2013-04-30 14:31:00,
2013-04-30 14:41:00,41.0,29.0,-100.00,SSE,148,16.0,22.0,64,0.00,,,-99.99,,2013-04-30 14:41:00,
2013-04-30 14:52:00,41.0,27.0,-100.00,SSE,147,17.0,28.0,56,0.00,,,-99.99,,2013-04-30 14:52:00,
2013-04-30 15:01:00,41.0,29.0,-100.00,SSE,150,21.0,30.0,61,0.00,,,-99.99,,2013-04-30 15:01:00,
2013-04-30 15:11:00,40.0,28.0,-100.00,SSE,147,21.0,30.0,62,0.00,,,-99.99,,2013-04-30 15:11:00,
2013-04-30 15:21:00,40.0,29.0,-100.00,SE,131,18.0,26.0,66,0.00,,,-99.99,,2013-04-30 15:21:00,
2013-04-30 15:32:00,40.0,29.0,-100.00,SE,138,19.0,29.0,65,0.00,,,-99.99,,2013-04-30 15:32:00,
2013-04-30 15:42:00,40.0,29.0,-100.00,SE,144,21.0,29.0,67,0.00,,,-99.99,,2013-04-30 15:42:00,
2013-04-30 15:52:00,39.0,29.0,-100.00,South,172,21.0,28.0,66,0.00,,,-99.99,,2013-04-30 15:52:00,
2013-04-30 16:02:00,38.0,31.0,-100.00,South,189,21.0,26.0,74,0.00,,,-99.99,,2013-04-30 16:02:00,
2013-04-30 16:12:00,36.0,32.0,-100.00,South,182,21.0,26.0,82,0.01,,,-99.99,,2013-04-30 16:12:00,
2013-04-30 16:22:00,35.0,32.0,-100.00,South,189,22.0,26.0,90,0.08,,,-99.99,,2013-04-30 16:22:00,
2013-04-30 16:33:00,-999.0,-99.9,-100.00,SSW,195,22.0,27.0,-999,-99.99,,,-99.99,,2013-04-30 16:33:00,
2013-04-30 16:42:00,34.0,33.0,-100.00,SSW,196,22.0,28.0,96,0.03,,,-99.99,,2013-04-30 16:42:00,
2013-04-30 16:52:00,35.0,34.0,-100.00,South,189,19.0,26.0,96,0.01,,,-99.99,,2013-04-30 16:52:00,
2013-04-30 17:02:00,36.0,34.0,-100.00,South,181,17.0,22.0,95,0.01,,,-99.99,,2013-04-30 17:02:00,
2013-04-30 17:12:00,36.0,34.0,-100.00,South,182,18.0,24.0,92,0.00,,,-99.99,,2013-04-30 17:12:00,
2013-04-30 17:22:00,38.0,35.0,-100.00,South,179,19.0,25.0,91,0.00,,,-99.99,,2013-04-30 17:22:00,
2013-04-30 17:32:00,36.0,34.0,-100.00,SSW,206,16.0,21.0,92,0.00,,,-99.99,,2013-04-30 17:32:00,
2013-04-30 17:42:00,35.0,34.0,-100.00,SSW,205,14.0,18.0,94,0.00,,,-99.99,,2013-04-30 17:42:00,
2013-04-30 17:52:00,36.0,34.0,-100.00,SSW,213,12.0,17.0,93,0.00,,,-99.99,,2013-04-30 17:52:00,
2013-04-30 18:01:00,36.0,33.0,-100.00,SSW,210,15.0,21.0,88,0.00,,,-99.99,,2013-04-30 18:01:00,
2013-04-30 18:11:00,36.0,33.0,-100.00,SW,215,13.0,18.0,87,0.00,,,-99.99,,2013-04-30 18:11:00,
2013-04-30 18:22:00,38.0,33.0,-100.00,SW,219,12.0,17.0,82,0.00,,,-99.99,,2013-04-30 18:22:00,
2013-04-30 18:32:00,40.0,31.0,-100.00,SSE,165,17.0,23.0,72,0.00,,,-99.99,,2013-04-30 18:32:00,
2013-04-30 18:41:00,39.0,31.0,-100.00,SSE,167,18.0,22.0,73,0.00,,,-99.99,,2013-04-30 18:41:00,
2013-04-30 18:51:00,40.0,31.0,-100.00,South,182,14.0,22.0,70,0.00,,,-99.99,,2013-04-30 18:51:00,
2013-04-30 19:01:00,40.0,33.0,-100.00,South,178,18.0,26.0,76,0.00,,,-99.99,,2013-04-30 19:01:00,
2013-04-30 19:11:00,38.0,32.0,-100.00,South,188,18.0,28.0,78,0.00,,,-99.99,,2013-04-30 19:11:00,
2013-04-30 19:21:00,36.0,32.0,-100.00,SW,226,14.0,19.0,84,0.00,,,-99.99,,2013-04-30 19:21:00,
2013-04-30 19:32:00,39.0,32.0,-100.00,South,189,17.0,28.0,74,0.00,,,-99.99,,2013-04-30 19:32:00,
2013-04-30 19:42:00,39.0,32.0,-100.00,South,188,17.0,29.0,75,0.00,,,-99.99,,2013-04-30 19:42:00,
2013-04-30 19:52:00,37.0,33.0,-100.00,SSW,200,16.0,29.0,85,0.00,,,-99.99,,2013-04-30 19:52:00,
2013-04-30 20:02:00,37.0,32.0,-100.00,SSW,203,12.0,22.0,83,0.00,,,-99.99,,2013-04-30 20:02:00,
2013-04-30 20:11:00,37.0,31.0,-100.00,SSW,193,19.0,27.0,77,0.00,,,-99.99,,2013-04-30 20:11:00,
2013-04-30 20:21:00,36.0,30.0,-100.00,SSW,198,21.0,28.0,77,0.00,,,-99.99,,2013-04-30 20:21:00,
2013-04-30 20:32:00,37.0,30.0,-100.00,SSW,195,18.0,26.0,74,0.00,,,-99.99,,2013-04-30 20:32:00,
2013-04-30 20:42:00,38.0,31.0,-100.00,South,179,17.0,22.0,75,0.00,,,-99.99,,2013-04-30 20:42:00,
2013-04-30 20:52:00,38.0,31.0,-100.00,South,169,22.0,29.0,76,0.00,,,-99.99,,2013-04-30 20:52:00,
2013-04-30 21:01:00,37.0,30.0,-100.00,South,188,19.0,25.0,76,0.00,,,-99.99,,2013-04-30 21:01:00,
2013-04-30 21:11:00,36.0,31.0,-100.00,SSW,196,21.0,27.0,81,0.01,,,-99.99,,2013-04-30 21:11:00,
2013-04-30 21:22:00,36.0,31.0,-100.00,SSW,195,20.0,24.0,80,0.00,,,-99.99,,2013-04-30 21:22:00,
2013-04-30 21:32:00,36.0,30.0,-100.00,SSW,195,19.0,24.0,80,0.00,,,-99.99,,2013-04-30 21:32:00,
2013-04-30 21:42:00,36.0,30.0,-100.00,SSW,195,20.0,25.0,79,0.00,,,-99.99,,2013-04-30 21:42:00,
2013-04-30 21:52:00,34.0,31.0,-100.00,SSW,203,17.0,22.0,88,0.01,,,-99.99,,2013-04-30 21:52:00,
2013-04-30 22:02:00,33.0,32.0,-100.00,SSW,199,17.0,22.0,95,0.07,,,-99.99,,2013-04-30 22:02:00,
2013-04-30 22:12:00,32.0,31.0,-100.00,SSW,199,12.0,17.0,98,0.01,,,-99.99,,2013-04-30 22:12:00,
2013-04-30 22:22:00,32.0,32.0,-100.00,SSW,196,12.0,16.0,99,0.01,,,-99.99,,2013-04-30 22:22:00,
2013-04-30 22:32:00,32.0,32.0,-100.00,SSW,195,7.0,12.0,99,0.01,,,-99.99,,2013-04-30 22:32:00,
2013-04-30 22:42:00,-999.0,-99.9,-100.00,South,189,8.0,14.0,-999,-99.99,,,-99.99,,2013-04-30 22:42:00,
2013-04-30 22:52:00,32.0,32.0,-100.00,SSE,168,10.0,14.0,100,0.04,,,-99.99,,2013-04-30 22:52:00,
2013-04-30 23:02:00,32.0,32.0,-100.00,SSE,168,8.0,12.0,100,0.03,,,-99.99,,2013-04-30 23:02:00,
2013-04-30 23:11:00,32.0,32.0,-100.00,SSE,158,6.0,11.0,100,0.01,,,-99.99,,2013-04-30 23:11:00,
2013-04-30 23:21:00,32.0,32.0,-100.00,SE,143,9.0,14.0,100,0.03,,,-99.99,,2013-04-30 23:21:00,
2013-04-30 23:32:00,32.0,32.0,-100.00,SE,140,9.0,14.0,100,0.07,,,-99.99,,2013-04-30 23:32:00,
2013-04-30 23:42:00,32.0,32.0,-100.00,SE,143,7.0,12.0,100,0.08,,,-99.99,,2013-04-30 23:42:00,
2013-04-30 23:52:00,32.0,32.0,-100.00,SSE,148,12.0,17.0,100,0.11,,,-99.99,,2013-04-30 23:52:00,